,,,PA_Meas_PMT16A,,PR_Meas_QMR101_102,,RH_Meas_QMH101,,SR_Meas_QMS101,,TA_Meas_QMH101,,GenWind,,GenWind,
date,time,status,PA,status,PR,status,RH,status,SR,status,TA,status,DirAvg,status,SpdAvg,
2012-02-09, 00:00:04,VALID,1000.78,VALID,0,VALID,93.1577,VALID,0,VALID,23.3305,VALID,104,VALID,0,
2012-02-09, 00:01:04,VALID,1000.77,VALID,0,VALID,93.1119,VALID,0,VALID,23.35,VALID,104,VALID,0,
2012-02-09, 00:02:04,VALID,1000.77,VALID,0,VALID,93.0585,VALID,0,VALID,23.35,VALID,104,VALID,0,
2012-02-09, 00:03:04,VALID,1000.75,VALID,0,VALID,93.0737,VALID,0,VALID,23.35,VALID,104,VALID,0,
2012-02-09, 00:04:04,VALID,1000.76,VALID,0,VALID,93.0737,VALID,0,VALID,23.35,VALID,104,VALID,0,
2012-02-09, 00:05:04,VALID,1000.74,VALID,0,VALID,93.0737,VALID,0,VALID,23.3695,VALID,103,VALID,0,
2012-02-09, 00:06:04,VALID,1000.73,VALID,0,VALID,92.9593,VALID,0,VALID,23.35,VALID,103,VALID,0.33125,
2012-02-09, 00:07:04,VALID,1000.72,VALID,0,VALID,92.9517,VALID,0,VALID,23.3305,VALID,103,VALID,0.148828,
2012-02-09, 00:08:04,VALID,1000.71,VALID,0,VALID,92.9822,VALID,0,VALID,23.3695,VALID,103,VALID,0.352344,
2012-02-09, 00:09:04,VALID,1000.72,VALID,0,VALID,92.9288,VALID,0,VALID,23.3518,VALID,103,VALID,0.475391,
2012-02-09, 00:10:04,VALID,1000.71,VALID,0,VALID,93.0356,VALID,0,VALID,23.3695,VALID,103,VALID,0.655469,
2012-02-09, 00:11:04,VALID,1000.68,VALID,0,VALID,93.0585,VALID,0,VALID,23.3695,VALID,103,VALID,0.662891,
2012-02-09, 00:12:04,VALID,1000.65,VALID,0,VALID,93.0051,VALID,0,VALID,23.4103,VALID,73,VALID,0.658203,
2012-02-09, 00:13:04,VALID,1000.66,VALID,0,VALID,92.7762,VALID,0,VALID,23.3323,VALID,12,VALID,1.13164,
2012-02-09, 00:14:04,VALID,1000.67,VALID,0,VALID,92.7457,VALID,0,VALID,23.2719,VALID,12,VALID,0.966797,
2012-02-09, 00:15:04,VALID,1000.62,VALID,0,VALID,92.677,VALID,0,VALID,23.2329,VALID,12,VALID,1.08867,
2012-02-09, 00:16:04,VALID,1000.62,VALID,0,VALID,92.6083,VALID,0,VALID,23.1744,VALID,12,VALID,1.21602,
2012-02-09, 00:17:04,VALID,1000.6,VALID,0,VALID,92.738,VALID,0,VALID,23.1762,VALID,12,VALID,1.15937,
2012-02-09, 00:18:04,VALID,1000.58,VALID,0,VALID,92.7991,VALID,0,VALID,23.1566,VALID,12,VALID,0.979688,
2012-02-09, 00:19:04,VALID,1000.55,VALID,0,VALID,92.8372,VALID,0,VALID,23.1176,VALID,12,VALID,0.729688,
2012-02-09, 00:20:04,VALID,1000.54,VALID,0,VALID,92.8983,VALID,0,VALID,23.0964,VALID,12,VALID,0.429688,
2012-02-09, 00:21:04,VALID,1000.53,VALID,0,VALID,92.8906,VALID,0,VALID,23.0573,VALID,12,VALID,0.381641,
2012-02-09, 00:22:04,VALID,1000.54,VALID,0,VALID,92.8677,VALID,0,VALID,23.0591,VALID,12,VALID,0.358594,
2012-02-09, 00:23:04,VALID,1000.48,VALID,0,VALID,92.9211,VALID,0,VALID,23.0396,VALID,12,VALID,0.511719,
2012-02-09, 00:24:04,VALID,1000.49,VALID,0,VALID,93.028,VALID,0,VALID,23.0378,VALID,12,VALID,0.573047,
2012-02-09, 00:25:04,VALID,1000.53,VALID,0,VALID,93.1271,VALID,0,VALID,23.0591,VALID,12,VALID,1.09961,
2012-02-09, 00:26:04,VALID,1000.51,VALID,0,VALID,93.1882,VALID,0,VALID,23.0573,VALID,12,VALID,1.09453,
2012-02-09, 00:27:04,VALID,1000.5,VALID,0,VALID,93.1119,VALID,0,VALID,23.0183,VALID,12,VALID,1.06758,
2012-02-09, 00:28:04,VALID,1000.5,VALID,0,VALID,93.0814,VALID,0,VALID,23.0201,VALID,12,VALID,0.879687,
2012-02-09, 00:29:04,VALID,1000.47,VALID,0,VALID,93.0432,VALID,0,VALID,22.9988,VALID,12,VALID,0.617578,
2012-02-09, 00:30:04,VALID,1000.5,VALID,0,VALID,93.0737,VALID,0,VALID,22.9811,VALID,12,VALID,0.41875,
2012-02-09, 00:31:04,VALID,1000.48,VALID,0,VALID,93.15,VALID,0,VALID,22.9793,VALID,12,VALID,0.503125,
2012-02-09, 00:32:04,VALID,1000.45,VALID,0,VALID,93.2187,VALID,0,VALID,22.9988,VALID,12,VALID,0.348437,
2012-02-09, 00:33:04,VALID,1000.45,VALID,0,VALID,93.234,VALID,0,VALID,23.0201,VALID,12,VALID,0.380859,
2012-02-09, 00:34:04,VALID,1000.44,VALID,0,VALID,93.2797,VALID,0,VALID,23.0378,VALID,12,VALID,0.599219,
2012-02-09, 00:35:04,VALID,1000.45,VALID,0,VALID,93.3408,VALID,0,VALID,23.0361,VALID,12,VALID,0.677344,
2012-02-09, 00:36:04,VALID,1000.41,VALID,0,VALID,93.3637,VALID,0,VALID,23.0769,VALID,12,VALID,0.651563,
2012-02-09, 00:37:04,VALID,1000.43,VALID,0,VALID,93.2645,VALID,0,VALID,23.0361,VALID,12,VALID,0.468359,
2012-02-09, 00:38:04,VALID,1000.42,VALID,0,VALID,93.2721,VALID,0,VALID,23.0573,VALID,12,VALID,0.442578,
2012-02-09, 00:39:04,VALID,1000.43,VALID,0,VALID,93.2721,VALID,0,VALID,23.0769,VALID,12,VALID,0.199219,
2012-02-09, 00:40:04,VALID,1000.41,VALID,0,VALID,93.2111,VALID,0.104696,VALID,23.0556,VALID,12,VALID,0.145703,
2012-02-09, 00:41:04,VALID,1000.38,VALID,0,VALID,93.2187,VALID,0,VALID,23.0361,VALID,12,VALID,0.0304688,
2012-02-09, 00:42:04,VALID,1000.38,VALID,0,VALID,93.1653,VALID,0,VALID,23.0573,VALID,12,VALID,0,
2012-02-09, 00:43:04,VALID,1000.36,VALID,0,VALID,93.1653,VALID,0,VALID,23.0769,VALID,12,VALID,0.141016,
2012-02-09, 00:44:04,VALID,1000.34,VALID,0,VALID,93.1882,VALID,0,VALID,23.0769,VALID,12,VALID,0.318359,
2012-02-09, 00:45:04,VALID,1000.36,VALID,0,VALID,93.3103,VALID,0,VALID,23.1159,VALID,12,VALID,0.323828,
2012-02-09, 00:46:04,VALID,1000.32,VALID,0,VALID,93.4094,VALID,0,VALID,23.1531,VALID,12,VALID,0.471875,
2012-02-09, 00:47:04,VALID,1000.31,VALID,0,VALID,93.5239,VALID,0,VALID,23.2117,VALID,95,VALID,0.642969,
2012-02-09, 00:48:04,VALID,1000.32,VALID,0,VALID,93.5315,VALID,0,VALID,23.2719,VALID,118,VALID,0.534766,
2012-02-09, 00:49:04,VALID,1000.3,VALID,0,VALID,93.4934,VALID,0,VALID,23.2915,VALID,118,VALID,0.575391,
2012-02-09, 00:50:04,VALID,1000.32,VALID,0,VALID,93.4171,VALID,0,VALID,23.311,VALID,118,VALID,0.3375,
2012-02-09, 00:51:04,VALID,1000.34,VALID,0,VALID,93.3408,VALID,0,VALID,23.35,VALID,118,VALID,0.352734,
2012-02-09, 00:52:04,VALID,1000.33,VALID,0,VALID,93.2492,VALID,0,VALID,23.3092,VALID,118,VALID,0.308984,
2012-02-09, 00:53:04,VALID,1000.31,VALID,0,VALID,93.1577,VALID,0,VALID,23.35,VALID,118,VALID,0.14375,
2012-02-09, 00:54:04,VALID,1000.33,VALID,0,VALID,93.1729,VALID,0,VALID,23.3305,VALID,118,VALID,0.234375,
2012-02-09, 00:55:04,VALID,1000.3,VALID,0,VALID,93.1424,VALID,0,VALID,23.3695,VALID,118,VALID,0.226563,
2012-02-09, 00:56:04,VALID,1000.31,VALID,0,VALID,93.1271,VALID,0,VALID,23.3482,VALID,118,VALID,0.4625,
2012-02-09, 00:57:04,VALID,1000.26,VALID,0,VALID,93.0966,VALID,0,VALID,23.3695,VALID,118,VALID,0.490234,
2012-02-09, 00:58:04,VALID,1000.27,VALID,0,VALID,93.1577,VALID,0,VALID,23.389,VALID,118,VALID,0.549219,
2012-02-09, 00:59:04,VALID,1000.25,VALID,0,VALID,93.1043,VALID,0,VALID,23.3677,VALID,118,VALID,0.335547,
2012-02-09, 01:00:04,VALID,1000.26,VALID,0,VALID,93.0737,VALID,0,VALID,23.3677,VALID,118,VALID,0.608984,
2012-02-09, 01:01:04,VALID,1000.21,VALID,0,VALID,93.1043,VALID,0,VALID,23.389,VALID,118,VALID,0.276953,
2012-02-09, 01:02:04,VALID,1000.23,VALID,0,VALID,93.0661,VALID,0,VALID,23.389,VALID,118,VALID,0.326172,
2012-02-09, 01:03:04,VALID,1000.21,VALID,0,VALID,93.089,VALID,0,VALID,23.4085,VALID,118,VALID,0.423828,
2012-02-09, 01:04:04,VALID,1000.19,VALID,0,VALID,93.1195,VALID,0,VALID,23.389,VALID,118,VALID,0.400391,
2012-02-09, 01:05:04,VALID,1000.16,VALID,0,VALID,93.1577,VALID,0,VALID,23.4085,VALID,117,VALID,0.424219,
2012-02-09, 01:06:04,VALID,1000.16,VALID,0,VALID,93.1729,VALID,0,VALID,23.4298,VALID,117,VALID,0.308594,
2012-02-09, 01:07:04,VALID,1000.17,VALID,0,VALID,93.1958,VALID,0,VALID,23.428,VALID,117,VALID,0.431641,
2012-02-09, 01:08:04,VALID,1000.19,VALID,0,VALID,93.1653,VALID,0,VALID,23.4298,VALID,108,VALID,0.525,
2012-02-09, 01:09:04,VALID,1000.17,VALID,0,VALID,93.0432,VALID,0,VALID,23.389,VALID,14,VALID,0.698828,
2012-02-09, 01:10:04,VALID,1000.15,VALID,0,VALID,93.0814,VALID,0,VALID,23.3908,VALID,14,VALID,0.644141,
2012-02-09, 01:11:04,VALID,1000.13,VALID,0,VALID,93.1271,VALID,0,VALID,23.3713,VALID,14,VALID,0.616797,
2012-02-09, 01:12:04,VALID,1000.13,VALID,0,VALID,93.1348,VALID,0,VALID,23.3305,VALID,14,VALID,0.649219,
2012-02-09, 01:13:04,VALID,1000.08,VALID,0,VALID,93.0966,VALID,0,VALID,23.3323,VALID,14,VALID,0.627734,
2012-02-09, 01:14:04,VALID,1000.09,VALID,0,VALID,93.1043,VALID,0,VALID,23.3323,VALID,14,VALID,0.574609,
2012-02-09, 01:15:04,VALID,1000.05,VALID,0,VALID,93.1653,VALID,0,VALID,23.3127,VALID,14,VALID,0.660937,
2012-02-09, 01:16:04,VALID,1000.03,VALID,0,VALID,93.2187,VALID,0,VALID,23.3323,VALID,14,VALID,0.394141,
2012-02-09, 01:17:04,VALID,1000.05,VALID,0,VALID,93.2492,VALID,0,VALID,23.311,VALID,14,VALID,0.256641,
2012-02-09, 01:18:04,VALID,1000.02,VALID,0,VALID,93.2568,VALID,0,VALID,23.3305,VALID,14,VALID,0.389844,
2012-02-09, 01:19:04,VALID,1000.03,VALID,0,VALID,93.295,VALID,0,VALID,23.3305,VALID,14,VALID,0.380078,
2012-02-09, 01:20:04,VALID,1000.03,VALID,0,VALID,93.295,VALID,0,VALID,23.3518,VALID,14,VALID,0.385547,
2012-02-09, 01:21:04,VALID,1000.03,VALID,0,VALID,93.295,VALID,0,VALID,23.3305,VALID,14,VALID,0.335156,
2012-02-09, 01:22:04,VALID,999.999,VALID,0,VALID,93.2797,VALID,0,VALID,23.35,VALID,14,VALID,0.359375,
2012-02-09, 01:23:04,VALID,999.985,VALID,0,VALID,93.2721,VALID,0,VALID,23.3518,VALID,14,VALID,0.419141,
2012-02-09, 01:24:04,VALID,999.999,VALID,0,VALID,93.2645,VALID,0,VALID,23.35,VALID,33,VALID,0.780469,
2012-02-09, 01:25:04,VALID,999.954,VALID,0,VALID,93.2797,VALID,0,VALID,23.3908,VALID,36,VALID,0.837891,
2012-02-09, 01:26:04,VALID,999.965,VALID,0,VALID,93.3026,VALID,0,VALID,23.4103,VALID,47,VALID,1.09844,
2012-02-09, 01:27:04,VALID,999.93,VALID,0,VALID,93.2416,VALID,0,VALID,23.389,VALID,46,VALID,1.34258,
2012-02-09, 01:28:04,VALID,999.941,VALID,0,VALID,93.2111,VALID,0,VALID,23.389,VALID,43,VALID,1.33281,
2012-02-09, 01:29:04,VALID,999.899,VALID,0,VALID,93.2034,VALID,0,VALID,23.4085,VALID,44,VALID,1.48359,
2012-02-09, 01:30:04,VALID,999.896,VALID,0,VALID,93.1882,VALID,0,VALID,23.4493,VALID,46,VALID,1.11445,
2012-02-09, 01:31:04,VALID,999.846,VALID,0,VALID,93.1271,VALID,0,VALID,23.428,VALID,47,VALID,1.06523,
2012-02-09, 01:32:04,VALID,999.842,VALID,0,VALID,93.0661,VALID,0,VALID,23.428,VALID,49,VALID,0.837891,
2012-02-09, 01:33:04,VALID,999.815,VALID,0,VALID,93.0661,VALID,0,VALID,23.428,VALID,49,VALID,0.65625,
2012-02-09, 01:34:04,VALID,999.804,VALID,0,VALID,93.0508,VALID,0,VALID,23.4493,VALID,49,VALID,0.49375,
2012-02-09, 01:35:04,VALID,999.776,VALID,0,VALID,93.0585,VALID,0,VALID,23.4475,VALID,49,VALID,0.296094,
2012-02-09, 01:36:04,VALID,999.769,VALID,0,VALID,93.0356,VALID,0,VALID,23.4298,VALID,49,VALID,0.290234,
2012-02-09, 01:37:04,VALID,999.733,VALID,0,VALID,93.0585,VALID,0,VALID,23.389,VALID,49,VALID,0.395312,
2012-02-09, 01:38:04,VALID,999.722,VALID,0,VALID,93.1043,VALID,0,VALID,23.4103,VALID,49,VALID,0.347656,
2012-02-09, 01:39:04,VALID,999.704,VALID,0,VALID,93.1119,VALID,0,VALID,23.4298,VALID,49,VALID,0.270312,
2012-02-09, 01:40:04,VALID,999.657,VALID,0,VALID,93.1119,VALID,0,VALID,23.389,VALID,49,VALID,0.0480469,
2012-02-09, 01:41:04,VALID,999.689,VALID,0,VALID,93.0966,VALID,0,VALID,23.35,VALID,49,VALID,0,
2012-02-09, 01:42:04,VALID,999.682,VALID,0,VALID,93.0585,VALID,0,VALID,23.35,VALID,49,VALID,0,
2012-02-09, 01:43:04,VALID,999.67,VALID,0,VALID,93.0585,VALID,0,VALID,23.3305,VALID,49,VALID,0,
2012-02-09, 01:44:04,VALID,999.631,VALID,0,VALID,93.0356,VALID,0,VALID,23.3323,VALID,49,VALID,0,
2012-02-09, 01:45:04,VALID,999.601,VALID,0,VALID,93.1195,VALID,0,VALID,23.2915,VALID,49,VALID,0.159375,
2012-02-09, 01:46:04,VALID,999.578,VALID,0,VALID,93.2568,VALID,0,VALID,23.3305,VALID,107,VALID,0.882422,
2012-02-09, 01:47:04,VALID,999.522,VALID,0,VALID,93.4171,VALID,0,VALID,23.389,VALID,107,VALID,0.707812,
2012-02-09, 01:48:04,VALID,999.531,VALID,0,VALID,93.4628,VALID,0,VALID,23.428,VALID,127,VALID,0.786719,
2012-02-09, 01:49:04,VALID,999.491,VALID,0,VALID,93.4781,VALID,0.104696,VALID,23.4458,VALID,134,VALID,0.677734,
2012-02-09, 01:50:04,VALID,999.472,VALID,0,VALID,93.44,VALID,0,VALID,23.4848,VALID,135,VALID,0.705469,
2012-02-09, 01:51:04,VALID,999.459,VALID,0,VALID,93.4247,VALID,0.104696,VALID,23.5238,VALID,136,VALID,0.614062,
2012-02-09, 01:52:04,VALID,999.466,VALID,0,VALID,93.356,VALID,0.104696,VALID,23.5433,VALID,146,VALID,0.441797,
2012-02-09, 01:53:04,VALID,999.478,VALID,0,VALID,93.2721,VALID,0,VALID,23.5628,VALID,146,VALID,0.264844,
2012-02-09, 01:54:04,VALID,999.455,VALID,0,VALID,93.1653,VALID,0,VALID,23.5823,VALID,146,VALID,0.0875,
2012-02-09, 01:55:04,VALID,999.456,VALID,0,VALID,92.9974,VALID,0,VALID,23.5433,VALID,146,VALID,0,
2012-02-09, 01:56:04,VALID,999.472,VALID,0,VALID,92.822,VALID,0,VALID,23.5061,VALID,146,VALID,0,
2012-02-09, 01:57:04,VALID,999.457,VALID,0,VALID,92.6923,VALID,0,VALID,23.4263,VALID,146,VALID,0,
2012-02-09, 01:58:04,VALID,999.467,VALID,0,VALID,92.5549,VALID,0.104696,VALID,23.3482,VALID,146,VALID,0.482812,
2012-02-09, 01:59:04,VALID,999.484,VALID,0,VALID,92.5549,VALID,0,VALID,23.2915,VALID,36,VALID,0.823828,
2012-02-09, 02:00:04,VALID,999.457,VALID,0,VALID,92.8906,VALID,0.104696,VALID,23.311,VALID,36,VALID,1.0832,
2012-02-09, 02:01:04,VALID,999.443,VALID,0,VALID,93.2263,VALID,0,VALID,23.3092,VALID,47,VALID,1.04688,
2012-02-09, 02:02:04,VALID,999.389,VALID,0,VALID,93.4934,VALID,0,VALID,23.3482,VALID,60,VALID,0.80625,
2012-02-09, 02:03:04,VALID,999.395,VALID,0,VALID,93.6002,VALID,0.104696,VALID,23.4067,VALID,72,VALID,0.660937,
2012-02-09, 02:04:04,VALID,999.368,VALID,0,VALID,93.5773,VALID,0,VALID,23.4671,VALID,75,VALID,0.909766,
2012-02-09, 02:05:04,VALID,999.395,VALID,0,VALID,93.4171,VALID,0,VALID,23.4475,VALID,64,VALID,0.842578,
2012-02-09, 02:06:04,VALID,999.383,VALID,0,VALID,93.3026,VALID,0,VALID,23.428,VALID,51,VALID,0.895312,
2012-02-09, 02:07:04,VALID,999.365,VALID,0,VALID,93.1348,VALID,0,VALID,23.389,VALID,37,VALID,0.973437,
2012-02-09, 02:08:04,VALID,999.399,VALID,0,VALID,92.944,VALID,0,VALID,23.3518,VALID,37,VALID,0.877734,
2012-02-09, 02:09:04,VALID,999.42,VALID,0,VALID,92.9059,VALID,0,VALID,23.2915,VALID,20,VALID,0.876172,
2012-02-09, 02:10:04,VALID,999.423,VALID,0,VALID,92.9135,VALID,0,VALID,23.2737,VALID,20,VALID,0.809375,
2012-02-09, 02:11:04,VALID,999.421,VALID,0,VALID,92.9898,VALID,0,VALID,23.2329,VALID,20,VALID,0.654688,
2012-02-09, 02:12:04,VALID,999.396,VALID,0,VALID,93.089,VALID,0,VALID,23.2134,VALID,20,VALID,0.752734,
2012-02-09, 02:13:04,VALID,999.397,VALID,0,VALID,93.1043,VALID,0,VALID,23.1957,VALID,20,VALID,0.840625,
2012-02-09, 02:14:04,VALID,999.406,VALID,0,VALID,93.1119,VALID,0,VALID,23.1762,VALID,20,VALID,0.854297,
2012-02-09, 02:15:04,VALID,999.415,VALID,0,VALID,93.15,VALID,0,VALID,23.1159,VALID,20,VALID,0.984766,
2012-02-09, 02:16:04,VALID,999.393,VALID,0,VALID,93.3484,VALID,0,VALID,23.1159,VALID,20,VALID,1.14961,
2012-02-09, 02:17:04,VALID,999.404,VALID,0,VALID,93.4476,VALID,0,VALID,23.1354,VALID,20,VALID,1.05039,
2012-02-09, 02:18:04,VALID,999.393,VALID,0,VALID,93.5697,VALID,0,VALID,23.1354,VALID,20,VALID,0.901953,
2012-02-09, 02:19:04,VALID,999.378,VALID,0,VALID,93.6154,VALID,0,VALID,23.1549,VALID,20,VALID,0.815234,
2012-02-09, 02:20:04,VALID,999.351,VALID,0,VALID,93.6154,VALID,0,VALID,23.1762,VALID,20,VALID,0.513281,
2012-02-09, 02:21:04,VALID,999.327,VALID,0,VALID,93.5697,VALID,0,VALID,23.1549,VALID,20,VALID,0.149219,
2012-02-09, 02:22:04,VALID,999.354,VALID,0,VALID,93.501,VALID,0,VALID,23.1354,VALID,20,VALID,0.180859,
2012-02-09, 02:23:04,VALID,999.339,VALID,0,VALID,93.5391,VALID,0,VALID,23.1549,VALID,20,VALID,0.05625,
2012-02-09, 02:24:04,VALID,999.327,VALID,0,VALID,93.5697,VALID,0,VALID,23.1744,VALID,20,VALID,0,
2012-02-09, 02:25:04,VALID,999.305,VALID,0,VALID,93.6154,VALID,0,VALID,23.1939,VALID,20,VALID,0.2,
2012-02-09, 02:26:04,VALID,999.306,VALID,0,VALID,93.6536,VALID,0,VALID,23.2134,VALID,20,VALID,0.4125,
2012-02-09, 02:27:04,VALID,999.306,VALID,0,VALID,93.6536,VALID,0,VALID,23.2134,VALID,20,VALID,0.3,
2012-02-09, 02:28:04,VALID,999.293,VALID,0,VALID,93.6307,VALID,0,VALID,23.2347,VALID,20,VALID,0.128516,
2012-02-09, 02:29:04,VALID,999.306,VALID,0,VALID,93.5926,VALID,0,VALID,23.2134,VALID,20,VALID,0,
2012-02-09, 02:30:04,VALID,999.306,VALID,0,VALID,93.5697,VALID,0,VALID,23.1939,VALID,20,VALID,0,
2012-02-09, 02:31:04,VALID,999.285,VALID,0,VALID,93.5391,VALID,0,VALID,23.1744,VALID,20,VALID,0,
2012-02-09, 02:32:04,VALID,999.257,VALID,0,VALID,93.5315,VALID,0,VALID,23.1744,VALID,20,VALID,0,
2012-02-09, 02:33:04,VALID,999.285,VALID,0,VALID,93.5239,VALID,0,VALID,23.1566,VALID,20,VALID,0,
2012-02-09, 02:34:04,VALID,999.276,VALID,0,VALID,93.5163,VALID,0,VALID,23.1531,VALID,20,VALID,0,
2012-02-09, 02:35:04,VALID,999.293,VALID,0,VALID,93.6002,VALID,0,VALID,23.1531,VALID,20,VALID,0,
2012-02-09, 02:36:04,VALID,999.256,VALID,0,VALID,93.6383,VALID,0,VALID,23.1726,VALID,20,VALID,0,
2012-02-09, 02:37:04,VALID,999.26,VALID,0,VALID,93.6688,VALID,0,VALID,23.1921,VALID,20,VALID,0,
2012-02-09, 02:38:04,VALID,999.242,VALID,0,VALID,93.6994,VALID,0,VALID,23.2134,VALID,20,VALID,0,
2012-02-09, 02:39:04,VALID,999.236,VALID,0,VALID,93.7223,VALID,0,VALID,23.2117,VALID,20,VALID,0,
2012-02-09, 02:40:04,VALID,999.227,VALID,0,VALID,93.7299,VALID,0,VALID,23.2117,VALID,20,VALID,0,
2012-02-09, 02:41:04,VALID,999.228,VALID,0,VALID,93.7299,VALID,0,VALID,23.2117,VALID,20,VALID,0.557031,
2012-02-09, 02:42:04,VALID,999.216,VALID,0,VALID,93.6917,VALID,0,VALID,23.2134,VALID,20,VALID,0.768359,
2012-02-09, 02:43:04,VALID,999.21,VALID,0,VALID,93.6612,VALID,0,VALID,23.1726,VALID,20,VALID,0.884375,
2012-02-09, 02:44:04,VALID,999.208,VALID,0,VALID,93.5315,VALID,0.104696,VALID,23.1141,VALID,20,VALID,1.04727,
2012-02-09, 02:45:04,VALID,999.178,VALID,0,VALID,93.3026,VALID,0,VALID,23.0166,VALID,25,VALID,1.3168,
2012-02-09, 02:46:04,VALID,999.14,VALID,0,VALID,93.3942,VALID,0,VALID,22.9971,VALID,36,VALID,1.31406,
2012-02-09, 02:47:04,VALID,999.166,VALID,0,VALID,93.646,VALID,0.104696,VALID,23.0166,VALID,43,VALID,1.18008,
2012-02-09, 02:48:04,VALID,999.141,VALID,0,VALID,93.7299,VALID,0,VALID,23.0166,VALID,43,VALID,1.13398,
2012-02-09, 02:49:04,VALID,999.186,VALID,0,VALID,93.768,VALID,0,VALID,23.0183,VALID,43,VALID,0.833594,
2012-02-09, 02:50:04,VALID,999.144,VALID,0,VALID,93.8062,VALID,0,VALID,23.0183,VALID,43,VALID,0.485938,
2012-02-09, 02:51:04,VALID,999.161,VALID,0,VALID,93.8367,VALID,0,VALID,23.0378,VALID,43,VALID,0.222656,
2012-02-09, 02:52:04,VALID,999.146,VALID,0,VALID,93.8214,VALID,0,VALID,23.0183,VALID,43,VALID,0,
2012-02-09, 02:53:04,VALID,999.123,VALID,0,VALID,93.7833,VALID,0,VALID,22.9988,VALID,43,VALID,0,
2012-02-09, 02:54:04,VALID,999.122,VALID,0,VALID,93.7451,VALID,0,VALID,22.9988,VALID,43,VALID,0,
2012-02-09, 02:55:04,VALID,999.133,VALID,0,VALID,93.7146,VALID,0,VALID,22.9598,VALID,43,VALID,0,
2012-02-09, 02:56:04,VALID,999.108,VALID,0,VALID,93.7375,VALID,0,VALID,22.9811,VALID,43,VALID,0,
2012-02-09, 02:57:04,VALID,999.111,VALID,0,VALID,93.7909,VALID,0,VALID,22.9793,VALID,43,VALID,0.263672,
2012-02-09, 02:58:04,VALID,999.129,VALID,0,VALID,93.8291,VALID,0,VALID,23.0201,VALID,43,VALID,0.280859,
2012-02-09, 02:59:04,VALID,999.102,VALID,0,VALID,93.8291,VALID,0,VALID,22.9776,VALID,43,VALID,0.171484,
2012-02-09, 03:00:04,VALID,999.111,VALID,0,VALID,93.8062,VALID,0,VALID,23.0006,VALID,43,VALID,0,
2012-02-09, 03:01:04,VALID,999.123,VALID,0,VALID,93.7757,VALID,0,VALID,22.9793,VALID,43,VALID,0,
2012-02-09, 03:02:04,VALID,999.146,VALID,0,VALID,93.7528,VALID,0,VALID,22.9598,VALID,43,VALID,0,
2012-02-09, 03:03:04,VALID,999.111,VALID,0,VALID,93.7528,VALID,0,VALID,22.942,VALID,43,VALID,0,
2012-02-09, 03:04:04,VALID,999.132,VALID,0,VALID,93.7528,VALID,0,VALID,22.942,VALID,43,VALID,0,
2012-02-09, 03:05:04,VALID,999.121,VALID,0,VALID,93.852,VALID,0,VALID,22.9208,VALID,43,VALID,0,
2012-02-09, 03:06:04,VALID,999.125,VALID,0,VALID,93.8901,VALID,0,VALID,22.9403,VALID,43,VALID,0.160547,
2012-02-09, 03:07:04,VALID,999.145,VALID,0,VALID,93.9054,VALID,0,VALID,22.9615,VALID,43,VALID,0.791016,
2012-02-09, 03:08:04,VALID,999.136,VALID,0,VALID,93.9283,VALID,0,VALID,22.9811,VALID,43,VALID,0.986328,
2012-02-09, 03:09:04,VALID,999.179,VALID,0,VALID,93.9359,VALID,0,VALID,22.9598,VALID,43,VALID,1.10312,
2012-02-09, 03:10:04,VALID,999.145,VALID,0,VALID,93.8748,VALID,0,VALID,22.9208,VALID,43,VALID,1.07891,
2012-02-09, 03:11:04,VALID,999.136,VALID,0,VALID,93.8443,VALID,0,VALID,22.9225,VALID,43,VALID,0.956641,
2012-02-09, 03:12:04,VALID,999.154,VALID,0,VALID,93.8062,VALID,0,VALID,22.903,VALID,43,VALID,0.684375,
2012-02-09, 03:13:04,VALID,999.093,VALID,0,VALID,93.768,VALID,0,VALID,22.8427,VALID,43,VALID,0.547266,
2012-02-09, 03:14:04,VALID,999.102,VALID,0,VALID,93.7604,VALID,0,VALID,22.8232,VALID,43,VALID,0.439453,
2012-02-09, 03:15:04,VALID,999.078,VALID,0,VALID,93.7451,VALID,0,VALID,22.7842,VALID,43,VALID,0.369141,
2012-02-09, 03:16:04,VALID,999.06,VALID,0,VALID,93.7528,VALID,0,VALID,22.7647,VALID,43,VALID,0.389844,
2012-02-09, 03:17:04,VALID,999.074,VALID,0,VALID,93.7299,VALID,0,VALID,22.7257,VALID,43,VALID,0.14375,
2012-02-09, 03:18:04,VALID,999.08,VALID,0,VALID,93.7451,VALID,0,VALID,22.7274,VALID,43,VALID,0.272656,
2012-02-09, 03:19:04,VALID,999.106,VALID,0,VALID,93.8214,VALID,0,VALID,22.7062,VALID,43,VALID,0.426562,
2012-02-09, 03:20:04,VALID,999.112,VALID,0,VALID,93.8825,VALID,0,VALID,22.7257,VALID,43,VALID,0.297266,
2012-02-09, 03:21:04,VALID,999.099,VALID,0,VALID,93.9588,VALID,0,VALID,22.7452,VALID,43,VALID,0.269922,
2012-02-09, 03:22:04,VALID,999.074,VALID,0,VALID,93.9664,VALID,0,VALID,22.7257,VALID,43,VALID,0.329297,
2012-02-09, 03:23:04,VALID,999.088,VALID,0,VALID,94.0045,VALID,0,VALID,22.7469,VALID,43,VALID,0.330469,
2012-02-09, 03:24:04,VALID,999.073,VALID,0,VALID,94.0198,VALID,0,VALID,22.7452,VALID,43,VALID,0.323828,
2012-02-09, 03:25:04,VALID,999.09,VALID,0,VALID,94.0503,VALID,0,VALID,22.7664,VALID,43,VALID,0.310156,
2012-02-09, 03:26:04,VALID,999.057,VALID,0,VALID,94.058,VALID,0,VALID,22.7452,VALID,43,VALID,0.306641,
2012-02-09, 03:27:04,VALID,999.085,VALID,0,VALID,94.0885,VALID,0,VALID,22.7257,VALID,45,VALID,0.517578,
2012-02-09, 03:28:04,VALID,999.044,VALID,0,VALID,94.1419,VALID,0,VALID,22.7647,VALID,56,VALID,0.649609,
2012-02-09, 03:29:04,VALID,999.053,VALID,0,VALID,94.2411,VALID,0,VALID,22.8232,VALID,67,VALID,0.603906,
2012-02-09, 03:30:04,VALID,999.029,VALID,0,VALID,94.3174,VALID,0,VALID,22.9225,VALID,72,VALID,0.839063,
2012-02-09, 03:31:04,VALID,999.033,VALID,0,VALID,94.3784,VALID,0,VALID,22.9598,VALID,72,VALID,0.378516,
2012-02-09, 03:32:04,VALID,999.044,VALID,0,VALID,94.3937,VALID,0,VALID,23.0183,VALID,72,VALID,0.448047,
2012-02-09, 03:33:04,VALID,999.049,VALID,0,VALID,94.3555,VALID,0,VALID,23.0573,VALID,72,VALID,0.547656,
2012-02-09, 03:34:04,VALID,999.051,VALID,0,VALID,94.3403,VALID,0,VALID,23.0591,VALID,72,VALID,0.230469,
2012-02-09, 03:35:04,VALID,999.082,VALID,0,VALID,94.2945,VALID,0,VALID,23.0591,VALID,72,VALID,0,
2012-02-09, 03:36:04,VALID,999.078,VALID,0,VALID,94.2716,VALID,0,VALID,23.0378,VALID,72,VALID,0,
2012-02-09, 03:37:04,VALID,999.057,VALID,0,VALID,94.2411,VALID,0,VALID,23.0591,VALID,72,VALID,0,
2012-02-09, 03:38:04,VALID,999.095,VALID,0,VALID,94.1953,VALID,0,VALID,23.0183,VALID,72,VALID,0,
2012-02-09, 03:39:04,VALID,999.113,VALID,0,VALID,94.0427,VALID,0,VALID,22.9403,VALID,37,VALID,0,
2012-02-09, 03:40:05,VALID,999.1,VALID,0,VALID,93.9893,VALID,0,VALID,22.9013,VALID,37,VALID,0.496484,
2012-02-09, 03:41:05,VALID,999.126,VALID,0,VALID,94.0045,VALID,0,VALID,22.9013,VALID,37,VALID,0.579687,
2012-02-09, 03:42:05,VALID,999.135,VALID,0,VALID,94.0351,VALID,0,VALID,22.8818,VALID,37,VALID,0.706641,
2012-02-09, 03:43:05,VALID,999.132,VALID,0,VALID,94.0274,VALID,0,VALID,22.8818,VALID,37,VALID,0.844922,
2012-02-09, 03:44:05,VALID,999.164,VALID,0,VALID,93.9511,VALID,0,VALID,22.8445,VALID,37,VALID,0.848437,
2012-02-09, 03:45:05,VALID,999.218,VALID,0,VALID,93.8214,VALID,0,VALID,22.7452,VALID,37,VALID,0.766016,
2012-02-09, 03:46:05,VALID,999.258,VALID,0,VALID,93.7375,VALID,0,VALID,22.6672,VALID,33,VALID,0.507422,
2012-02-09, 03:47:05,VALID,999.293,VALID,0,VALID,93.8062,VALID,0,VALID,22.6689,VALID,12,VALID,0.853125,
2012-02-09, 03:48:05,VALID,999.276,VALID,0,VALID,93.9511,VALID,0,VALID,22.7079,VALID,346,VALID,0.790625,